Volver al catálogo

FENGYUN 1C DEB

LostPO
NORAD 31063·DEBRIS·🇨🇳 China

Lanzado May 10, 1999 desde Taiyuan Satellite Launch Center

Loading…

Próximos Pases (próximas 24 horas)

TLE

ObsoletoSource: Space-Track

Época: Dec 28, 2025, 19:14 UTC

1 31063U 99025BFH 25362.80150404  .00643676  00000-0  13141-1 0  9991
2 31063  99.8321  13.6599 0008689  46.5833 129.5438 15.44037302988354

Sigue FENGYUN 1C DEB en tiempo real con AllMySat

Download on the App Store